Weather History for CYTZ - February, 2013

Change the Weather History Date:

Thursday, February 21, 2013

  Actual Average Record
Temperature  
Mean Temperature 18 °F -  
Max Temperature 26 °F 36 °F 44 °F (1997)
Min Temperature 10 °F 25 °F 6 °F (2015)
Degree Days  
Heating Degree Days 47    
Moisture  
Dew Point 10 °F    
Average Humidity 67    
Maximum Humidity 80    
Minimum Humidity 49    
Precipitation  
Precipitation 0.00 in 0.07 in - ()
Sea Level Pressure  
Sea Level Pressure 30.27 in    
Wind  
Wind Speed 12 mph ()    
Max Wind Speed 23 mph    
Max Gust Speed 30 mph    
Visibility 9.1 miles    
Events Snow    
Averages and records for this station are not official NWS values.
T = Trace of Precipitation, MM = Missing Value Source: Averaged Metar Reports

Daily Weather History Graph

Daily Weather History Graph

Search for Another Location

Airport or City:

Trip Planner

Search our weather history database for the weather conditions in past years. The results will help you decide how hot, cold, wet, or windy it might be!

Date:

Astronomy

Feb. 21, 2013 Rise Set
Actual Time 7:06 AM EST 5:56 PM EST
Civil Twilight 6:37 AM EST 6:25 PM EST
Nautical Twilight 6:04 AM EST 6:58 PM EST
Astronomical Twilight 5:31 AM EST 7:31 PM EST
Moon 2:04 PM EST (2/21) 4:15 AM EST (2/21)
Length of Visible Light 11h 47m
Length of Day
10h 49m
Waxing Gibbous, 83% of the Moon is Illuminated
Feb 21
Waxing Gibbous
Feb 25
Full
Mar 4
Last Quarter
Mar 11
New
Mar 19
First Quarter

Hourly Weather History & Observations

Time (EST) Temp. Windchill Dew Point Humidity Pressure Visibility Wind Dir Wind Speed Gust Speed Precip Events Conditions
12:00 AM 21.2 °F 8.3 °F 12.2 °F 68% 30.10 in 9.0 mi NW 13.8 mph 23.0 mph N/A Snow Light Snow
12:14 AM 21.2 °F 4.9 °F 10.4 °F 63% 30.09 in 9.0 mi WNW 23.0 mph 29.9 mph N/A   Overcast
1:00 AM 20 °F - 10 °F 52% 30.11 in 10 mi WNW 18.4 mph - -   Overcast
1:00 AM 21.2 °F 5.6 °F 10.4 °F 63% 30.10 in 9.0 mi WNW 20.7 mph - N/A   Overcast
2:00 AM 19.4 °F 6.0 °F 8.6 °F 63% 30.12 in 9.0 mi NW 13.8 mph - N/A   Overcast
2:51 AM 17.6 °F 4.3 °F 8.6 °F 68% 30.13 in 9.0 mi NW 12.7 mph 24.2 mph N/A Snow Light Snow
3:00 AM 17.6 °F 4.3 °F 10.4 °F 73% 30.14 in 9.0 mi NW 12.7 mph 20.7 mph N/A Snow Light Snow
3:17 AM 17.6 °F 5.0 °F 8.6 °F 68% 30.14 in 9.0 mi NW 11.5 mph - N/A   Overcast
3:31 AM 15.8 °F 2.7 °F 8.6 °F 73% 30.14 in 9.0 mi NW 11.5 mph - N/A Snow Light Snow
4:00 AM 15.8 °F 3.4 °F 6.8 °F 68% 30.16 in 9.0 mi North 10.4 mph - N/A Snow Light Snow
4:48 AM 12.2 °F -2.5 °F 5.0 °F 73% 30.19 in 9.0 mi NNW 12.7 mph 21.9 mph N/A   Mostly Cloudy
5:00 AM 12.2 °F -1.8 °F 5.0 °F 73% 30.20 in 9.0 mi NW 11.5 mph 18.4 mph N/A   Partly Cloudy
6:00 AM 12.2 °F -3.1 °F 3.2 °F 67% 30.22 in 9.0 mi NW 13.8 mph 21.9 mph N/A   Clear
7:00 AM 11 °F - 3 °F 60% 30.25 in 10 mi NW 11.5 mph - -  
7:00 AM 10.4 °F -4.1 °F 3.2 °F 73% 30.25 in 9.0 mi NW 11.5 mph 17.3 mph N/A   Clear
8:00 AM 12.2 °F -1.0 °F 5.0 °F 73% 30.28 in 9.0 mi NW 10.4 mph 18.4 mph N/A   Scattered Clouds
9:00 AM 14.0 °F -1.4 °F 3.2 °F 62% 30.30 in 9.0 mi NNW 15.0 mph 26.5 mph N/A   Clear
10:00 AM 15.8 °F -0.6 °F 5.0 °F 62% 30.32 in 9.0 mi NW 18.4 mph 26.5 mph N/A   Clear
11:00 AM 17.6 °F 3.7 °F 6.8 °F 63% 30.31 in 9.0 mi WNW 13.8 mph 25.3 mph N/A   Clear
12:00 PM 19.4 °F 5.0 °F 8.6 °F 63% 30.30 in 9.0 mi WNW 16.1 mph 23.0 mph N/A   Partly Cloudy
1:00 PM 22 °F - 11 °F 49% 30.30 in 10 mi WNW 12.7 mph - -  
1:00 PM 21.2 °F 9.5 °F 10.4 °F 63% 30.30 in 9.0 mi WNW 11.5 mph 18.4 mph N/A   Clear
2:00 PM 24.8 °F 15.3 °F 12.2 °F 59% 30.30 in 9.0 mi NW 9.2 mph 18.4 mph N/A   Overcast
3:00 PM 24.8 °F 16.1 °F 14.0 °F 64% 30.32 in 9.0 mi WNW 8.1 mph 17.3 mph N/A   Mostly Cloudy
4:00 PM 26.6 °F 18.2 °F 14.0 °F 59% 30.33 in 9.0 mi NNW 8.1 mph 17.3 mph N/A   Mostly Cloudy
5:00 PM 24.8 °F 13.4 °F 14.0 °F 64% 30.33 in 9.0 mi NW 12.7 mph - N/A   Clear
6:00 PM 24.8 °F 16.1 °F 15.8 °F 69% 30.37 in 9.0 mi NNW 8.1 mph - N/A   Clear
7:00 PM 23 °F - 16 °F 65% 30.42 in 10 mi NNW 11.5 mph - -  
7:00 PM 23.0 °F 12.4 °F 15.8 °F 74% 30.42 in 9.0 mi NNW 10.4 mph 17.3 mph N/A   Clear
7:23 PM 23.0 °F 13.9 °F 15.8 °F 74% 30.43 in 9.0 mi NNW 8.1 mph - N/A   Mostly Cloudy
8:00 PM 21.2 °F 11.7 °F 15.8 °F 80% 30.43 in 9.0 mi North 8.1 mph - N/A   Overcast
8:24 PM 21.2 °F 10.9 °F 14.0 °F 74% 30.44 in 9.0 mi North 9.2 mph - N/A   Scattered Clouds
9:00 PM 21.2 °F 11.7 °F 12.2 °F 68% 30.43 in 9.0 mi North 8.1 mph - N/A   Clear
10:00 PM 19.4 °F 11.5 °F 10.4 °F 68% 30.44 in 9.0 mi North 5.8 mph - N/A   Clear
11:00 PM 19.4 °F 12.8 °F 12.2 °F 74% 30.41 in 9.0 mi North 4.6 mph - N/A   Clear